Weather History for Angola Tri-State Steuben Coun, IN

Change the Weather History Date:

Sunday, January 26, 2014

  Actual Average (KFWA) Record (KFWA)
Temperature  
Mean Temperature 16 °F 25 °F  
Max Temperature 28 °F 32 °F 61 °F (1944)
Min Temperature 3 °F 17 °F -8 °F (1936)
Degree Days  
Heating Degree Days 50 40  
Month to date heating degree days 1039  
Since 1 July heating degree days 3367  
Cooling Degree Days 0 0  
Month to date cooling degree days 0  
Year to date cooling degree days 0  
Moisture  
Dew Point 8 °F    
Average Humidity 73    
Maximum Humidity 93    
Minimum Humidity 49    
Precipitation  
Precipitation 0.00 in 0.07 in 1.14 in (1967)
Month to date precipitation 1.92  
Year to date precipitation 1.92  
Snow  
Snow 0.00 in 0.30 in 4.70 in (1978)
Month to date snowfall 8.4  
Since 1 July snowfall 19.0  
Snow Depth -    
Sea Level Pressure  
Sea Level Pressure 29.53 in    
Wind  
Wind Speed 9 mph (SW)    
Max Wind Speed 21 mph    
Max Gust Speed 30 mph    
Visibility 8 miles    
Events      
T = Trace of Precipitation, MM = Missing Value Source: NWS Daily Summary

Daily Weather History Graph

Daily Weather History Graph

Search for Another Location

Airport:

Trip Planner

Search our weather history database for the weather conditions in past years. The results will help you decide how hot, cold, wet, or windy it might be!

Date:

Astronomy

Jan. 26, 2014 Rise Set
Actual Time 7:57 AM EST 5:48 PM EST
Civil Twilight 7:27 AM EST 6:18 PM EST
Nautical Twilight 6:54 AM EST 6:51 PM EST
Astronomical Twilight 6:21 AM EST 7:24 PM EST
Moon 3:34 AM EST (1/26) 1:36 PM EST (1/26)
Length of Visible Light 10h 50m
Length of Day
9h 50m
Waning Crescent, 24% of the Moon is Illuminated
Jan 26
Waning Crescent
Jan 30
New
Feb 6
First Quarter
Feb 14
Full
Feb 22
Last Quarter

Hourly Weather History & Observations

Time (EST) Temp. Windchill Dew Point Humidity Pressure Visibility Wind Dir Wind Speed Gust Speed Precip Events Conditions
12:35 AM 6.8 °F -0.1 °F 1.4 °F 79% 29.76 in 10.0 mi West 3.5 mph - N/A   Scattered Clouds
12:55 AM 6.8 °F -0.1 °F 1.4 °F 79% 29.75 in 10.0 mi WSW 3.5 mph - N/A   Unknown
1:15 AM 5.0 °F -5.6 °F -7.6 °F 56% 29.75 in 10.0 mi WSW 5.8 mph - N/A   Partly Cloudy
1:35 AM 5.0 °F -8.1 °F -0.4 °F 78% 29.75 in 10.0 mi WSW 8.1 mph - N/A   Clear
1:55 AM 6.8 °F -2.0 °F -2.2 °F 67% 29.74 in 10.0 mi SW 4.6 mph - N/A   Clear
2:15 AM 5.0 °F -6.9 °F -2.2 °F 72% 29.73 in 10.0 mi WSW 6.9 mph - N/A   Clear
2:35 AM 5.0 °F -5.6 °F -2.2 °F 72% 29.73 in 10.0 mi WSW 5.8 mph - N/A   Clear
2:55 AM 5.0 °F -9.1 °F -2.2 °F 72% 29.73 in 10.0 mi SW 9.2 mph - N/A   Clear
3:15 AM 5.0 °F -6.9 °F -2.2 °F 72% 29.72 in 10.0 mi SW 6.9 mph - N/A   Clear
3:35 AM 5.0 °F -6.9 °F -2.2 °F 72% 29.71 in 10.0 mi SSW 6.9 mph - N/A   Clear
3:55 AM 3.2 °F -9.1 °F -2.2 °F 78% 29.69 in 10.0 mi SSW 6.9 mph - N/A   Clear
4:15 AM 3.2 °F -7.8 °F -2.2 °F 78% 29.68 in 10.0 mi South 5.8 mph - N/A   Clear
4:35 AM 5.0 °F -4.1 °F -2.2 °F 72% 29.68 in 10.0 mi SSW 4.6 mph - N/A   Partly Cloudy
4:55 AM 3.2 °F -9.1 °F -2.2 °F 78% 29.68 in 10.0 mi South 6.9 mph - N/A   Mostly Cloudy
5:15 AM 3.2 °F -10.3 °F -2.2 °F 78% 29.68 in 10.0 mi SSW 8.1 mph - N/A   Overcast
5:35 AM 3.2 °F -12.2 °F -2.2 °F 78% 29.67 in 10.0 mi SSW 10.4 mph - N/A   Overcast
5:55 AM 3.2 °F -10.3 °F -2.2 °F 78% 29.66 in 10.0 mi SSW 8.1 mph - N/A   Mostly Cloudy
6:15 AM 3.2 °F -11.3 °F -0.4 °F 85% 29.65 in 3.0 mi SSW 9.2 mph - N/A   Overcast
6:35 AM 3.2 °F -10.3 °F -0.4 °F 85% 29.64 in 2.0 mi South 8.1 mph - N/A   Overcast
6:55 AM 3.2 °F -11.3 °F -0.4 °F 85% 29.63 in 2.0 mi South 9.2 mph - N/A   Overcast
7:15 AM 3.2 °F -11.3 °F -0.4 °F 85% 29.61 in 1.5 mi South 9.2 mph - N/A   Overcast
7:35 AM 3.2 °F -10.3 °F -0.4 °F 85% 29.60 in 2.0 mi South 8.1 mph - N/A   Overcast
7:55 AM 3.2 °F -10.3 °F -0.4 °F 85% 29.58 in 2.0 mi South 8.1 mph - N/A   Overcast
8:15 AM 3.2 °F -12.2 °F -0.4 °F 85% 29.57 in 1.2 mi South 10.4 mph - N/A   Overcast
8:35 AM 3.2 °F -11.3 °F -0.4 °F 85% 29.57 in 1.2 mi South 9.2 mph - N/A   Overcast
8:55 AM 3.2 °F -11.3 °F 1.4 °F 92% 29.57 in 1.2 mi South 9.2 mph - N/A   Overcast
9:15 AM 5.0 °F -10.8 °F 1.4 °F 85% 29.56 in 0.5 mi South 11.5 mph - N/A   Overcast
9:35 AM 5.0 °F -9.1 °F 1.4 °F 85% 29.54 in 0.8 mi South 9.2 mph - N/A   Overcast
9:55 AM 6.8 °F -6.9 °F 1.4 °F 79% 29.56 in 2.5 mi South 9.2 mph - N/A   Overcast
10:15 AM 6.8 °F -5.9 °F 1.4 °F 79% 29.54 in 1.0 mi South 8.1 mph - N/A   Overcast
10:35 AM 6.8 °F -5.9 °F 3.2 °F 85% 29.52 in 2.0 mi South 8.1 mph - N/A   Overcast
10:55 AM 6.8 °F -6.9 °F 1.4 °F 79% 29.49 in 4.0 mi South 9.2 mph - N/A   Overcast
11:15 AM 8.6 °F -5.5 °F -5.8 °F 52% 29.48 in 10.0 mi South 10.4 mph - N/A   Overcast
11:35 AM 8.6 °F -7.7 °F -5.8 °F 52% 29.46 in 6.0 mi South 13.8 mph - N/A   Overcast
11:55 AM 10.4 °F -4.8 °F -2.2 °F 57% 29.46 in 10.0 mi SSW 12.7 mph - N/A   Overcast
12:15 PM 12.2 °F -3.7 °F -0.4 °F 57% 29.43 in 10.0 mi South 15.0 mph - N/A   Overcast
12:35 PM 15.8 °F 2.7 °F -0.4 °F 49% 29.43 in 10.0 mi SSW 11.5 mph - N/A   Overcast
12:55 PM 15.8 °F 3.4 °F 1.4 °F 53% 29.42 in 10.0 mi South 10.4 mph - N/A   Overcast
1:15 PM 17.6 °F 5.7 °F 1.4 °F 49% 29.40 in 10.0 mi SSW 10.4 mph - N/A   Overcast
1:35 PM 17.6 °F 5.7 °F 5.0 °F 58% 29.39 in 10.0 mi SSW 10.4 mph - N/A   Overcast
1:55 PM 19.4 °F 9.5 °F 3.2 °F 49% 29.38 in 10.0 mi SW 8.1 mph - N/A   Overcast
2:15 PM 21.2 °F 7.3 °F 8.6 °F 58% 29.37 in 10.0 mi SW 16.1 mph - N/A   Overcast
2:35 PM 24.8 °F 14.0 °F 10.4 °F 54% 29.36 in 10.0 mi SW 11.5 mph - N/A   Overcast
2:55 PM 26.6 °F 16.2 °F 12.2 °F 55% 29.35 in 10.0 mi West 11.5 mph - N/A   Overcast
3:15 PM 26.6 °F 17.5 °F 15.8 °F 64% 29.36 in 10.0 mi West 9.2 mph - N/A   Overcast
3:35 PM 28.4 °F 18.0 °F 21.2 °F 74% 29.36 in 10.0 mi WSW 12.7 mph - N/A   Overcast
3:55 PM 28.4 °F 16.6 °F 21.2 °F 74% 29.37 in 10.0 mi West 16.1 mph - N/A   Overcast
4:15 PM 28.4 °F 16.2 °F 21.2 °F 74% 29.39 in 10.0 mi WSW 17.3 mph 29.9 mph N/A   Overcast
4:35 PM 28.4 °F 16.2 °F 17.6 °F 64% 29.40 in 10.0 mi West 17.3 mph - N/A   Overcast
4:55 PM 28.4 °F 17.5 °F 15.8 °F 59% 29.41 in 10.0 mi West 13.8 mph 27.6 mph N/A   Overcast
5:15 PM 28.4 °F 18.5 °F 21.2 °F 74% 29.43 in 10.0 mi West 11.5 mph 23.0 mph N/A   Overcast
5:35 PM 28.4 °F 16.6 °F 21.2 °F 74% 29.43 in 10.0 mi West 16.1 mph - N/A   Overcast
5:55 PM 28.4 °F 19.7 °F 15.8 °F 59% 29.44 in 10.0 mi West 9.2 mph - N/A   Overcast
6:15 PM 26.6 °F 15.2 °F 21.2 °F 80% 29.44 in 10.0 mi WSW 13.8 mph - N/A   Scattered Clouds
6:35 PM 26.6 °F 15.7 °F 21.2 °F 80% 29.46 in 10.0 mi WSW 12.7 mph - N/A   Mostly Cloudy
6:55 PM 26.6 °F 15.7 °F 17.6 °F 69% 29.46 in 10.0 mi West 12.7 mph - N/A   Mostly Cloudy
7:15 PM 26.6 °F 15.2 °F 21.2 °F 80% 29.46 in 10.0 mi WSW 13.8 mph - N/A   Clear
7:35 PM 26.6 °F 15.2 °F 19.4 °F 74% 29.46 in 10.0 mi WSW 13.8 mph - N/A   Scattered Clouds
7:55 PM 26.6 °F 16.8 °F 21.2 °F 80% 29.46 in 10.0 mi WSW 10.4 mph - N/A   Mostly Cloudy
8:15 PM 28.4 °F 19.7 °F 19.4 °F 69% 29.42 in 10.0 mi WSW 9.2 mph - N/A   Mostly Cloudy
8:35 PM 28.4 °F 18.5 °F 15.8 °F 59% 29.43 in 10.0 mi WSW 11.5 mph - N/A   Mostly Cloudy
8:55 PM 28.4 °F 19.1 °F 21.2 °F 74% 29.43 in 10.0 mi WSW 10.4 mph - N/A   Overcast
9:15 PM 28.4 °F 18.5 °F 21.2 °F 74% 29.42 in 10.0 mi WSW 11.5 mph - N/A   Overcast
9:35 PM 28.4 °F 19.7 °F 17.6 °F 64% 29.41 in 8.0 mi WSW 9.2 mph - N/A   Overcast
9:55 PM 28.4 °F 18.5 °F 19.4 °F 69% 29.42 in 10.0 mi West 11.5 mph - N/A   Overcast
10:15 PM 28.4 °F 19.1 °F 23.0 °F 80% 29.43 in 10.0 mi West 10.4 mph - N/A   Overcast
10:35 PM 28.4 °F 18.0 °F 23.0 °F 80% 29.43 in 10.0 mi West 12.7 mph - N/A   Overcast
10:55 PM 26.6 °F 16.2 °F 24.8 °F 93% 29.44 in 2.5 mi West 11.5 mph - N/A   Overcast
11:15 PM 26.6 °F 13.1 °F 15.8 °F 64% 29.46 in 2.0 mi WNW 19.6 mph 28.8 mph N/A   Overcast
11:35 PM 23.0 °F 8.0 °F 21.2 °F 93% 29.49 in 1.2 mi WNW 20.7 mph - N/A   Overcast
11:55 PM 21.2 °F 6.4 °F 19.4 °F 93% 29.50 in 1.0 mi NW 18.4 mph - N/A   Overcast